Time,TemperatureF,DewpointF,PressureIn,WindDirection,WindDirectionDegrees,WindSpeedMPH,WindSpeedGustMPH,Humidity,HourlyPrecipIn,Conditions,Clouds,dailyrainin,SoftwareType,DateUTC
2013-01-01 00:00:00,41.1,27.0,23.24,South,179,3.0,3.0,57,0.00,,,0.00,VWS V13.01,2013-01-01 05:00:00,
2013-01-01 00:01:00,41.2,26.7,23.24,South,180,4.0,6.0,56,0.00,,,0.00,VWS V13.01,2013-01-01 05:01:00,
2013-01-01 00:05:00,41.1,27.0,23.24,South,179,2.0,3.0,57,0.00,,,0.00,VWS V13.01,2013-01-01 05:05:00,
2013-01-01 00:06:00,41.4,26.9,23.24,South,178,2.0,3.0,56,0.00,,,0.00,VWS V13.01,2013-01-01 05:06:00,
2013-01-01 00:10:00,41.3,26.8,23.24,South,178,0.0,6.0,56,0.00,,,0.00,VWS V13.01,2013-01-01 05:10:00,
2013-01-01 00:11:00,41.4,26.9,23.24,South,178,0.0,2.0,56,0.00,,,0.00,VWS V13.01,2013-01-01 05:11:00,
2013-01-01 00:15:00,41.4,26.9,23.24,South,178,2.0,3.0,56,0.00,,,0.00,VWS V13.01,2013-01-01 05:15:00,
2013-01-01 00:16:00,41.5,27.0,23.24,South,178,0.0,2.0,56,0.00,,,0.00,VWS V13.01,2013-01-01 05:16:00,
2013-01-01 00:20:00,41.5,26.5,23.24,South,178,1.0,4.0,55,0.00,,,0.00,VWS V13.01,2013-01-01 05:20:00,
2013-01-01 00:21:00,41.6,26.6,23.24,SSE,167,2.0,5.0,55,0.00,,,0.00,VWS V13.01,2013-01-01 05:21:00,
2013-01-01 00:25:00,41.6,27.1,23.24,South,180,3.0,4.0,56,0.00,,,0.00,VWS V13.01,2013-01-01 05:25:00,
2013-01-01 00:26:00,41.8,26.4,23.24,SE,134,2.0,6.0,54,0.00,,,0.00,VWS V13.01,2013-01-01 05:26:00,
2013-01-01 00:30:00,41.7,26.7,23.24,SSE,161,1.0,5.0,55,0.00,,,0.00,VWS V13.01,2013-01-01 05:30:00,
2013-01-01 00:31:00,41.9,26.5,23.24,SE,134,2.0,2.0,54,0.00,,,0.00,VWS V13.01,2013-01-01 05:31:00,
2013-01-01 00:35:00,41.9,26.5,23.24,SE,134,2.0,6.0,54,0.00,,,0.00,VWS V13.01,2013-01-01 05:35:00,
2013-01-01 00:36:00,41.9,26.5,23.24,SSE,154,1.0,5.0,54,0.00,,,0.00,VWS V13.01,2013-01-01 05:36:00,
2013-01-01 00:40:00,41.9,26.5,23.24,SE,140,2.0,4.0,54,0.00,,,0.00,VWS V13.01,2013-01-01 05:40:00,
2013-01-01 00:41:00,42.0,26.6,23.24,South,176,1.0,5.0,54,0.00,,,0.00,VWS V13.01,2013-01-01 05:41:00,
2013-01-01 00:45:00,41.9,26.5,23.24,SE,138,1.0,5.0,54,0.00,,,0.00,VWS V13.01,2013-01-01 05:45:00,
2013-01-01 00:46:00,41.9,26.5,23.24,SSE,165,0.0,3.0,54,0.00,,,0.00,VWS V13.01,2013-01-01 05:46:00,
2013-01-01 00:50:00,42.0,26.6,23.24,SSE,165,2.0,5.0,54,0.00,,,0.00,VWS V13.01,2013-01-01 05:50:00,
2013-01-01 00:51:00,41.9,26.5,23.24,SSE,157,2.0,5.0,54,0.00,,,0.00,VWS V13.01,2013-01-01 05:51:00,
2013-01-01 00:55:00,41.9,26.5,23.24,SSE,163,0.0,3.0,54,0.00,,,0.00,VWS V13.01,2013-01-01 05:55:00,
2013-01-01 00:56:00,42.0,26.6,23.24,SE,146,2.0,4.0,54,0.00,,,0.00,VWS V13.01,2013-01-01 05:56:00,
2013-01-01 01:00:00,41.9,26.5,23.24,SSE,157,3.0,5.0,54,0.00,,,0.00,VWS V13.01,2013-01-01 06:00:00,
2013-01-01 01:01:00,42.0,26.6,23.24,SSE,153,3.0,4.0,54,0.00,,,0.00,VWS V13.01,2013-01-01 06:01:00,
2013-01-01 01:05:00,42.0,26.6,23.24,SE,146,0.0,4.0,54,0.00,,,0.00,VWS V13.01,2013-01-01 06:05:00,
2013-01-01 01:06:00,42.0,26.6,23.24,South,182,3.0,4.0,54,0.00,,,0.00,VWS V13.01,2013-01-01 06:06:00,
2013-01-01 01:10:00,42.0,26.6,23.24,SE,130,1.0,5.0,54,0.00,,,0.00,VWS V13.01,2013-01-01 06:10:00,
2013-01-01 01:11:00,42.0,26.6,23.24,SSW,199,5.0,5.0,54,0.00,,,0.00,VWS V13.01,2013-01-01 06:11:00,
2013-01-01 01:15:00,42.0,26.1,23.24,SE,134,1.0,5.0,53,0.00,,,0.00,VWS V13.01,2013-01-01 06:15:00,
2013-01-01 01:16:00,42.1,26.2,23.24,SSE,167,1.0,5.0,53,0.00,,,0.00,VWS V13.01,2013-01-01 06:16:00,
2013-01-01 01:20:00,42.1,26.2,23.24,South,175,1.0,5.0,53,0.00,,,0.00,VWS V13.01,2013-01-01 06:20:00,
2013-01-01 01:21:00,42.1,26.7,23.24,South,190,4.0,4.0,54,0.00,,,0.00,VWS V13.01,2013-01-01 06:21:00,
2013-01-01 01:25:00,42.1,26.2,23.24,SSE,168,2.0,5.0,53,0.00,,,0.00,VWS V13.01,2013-01-01 06:25:00,
2013-01-01 01:26:00,42.2,26.3,23.24,South,183,0.0,4.0,53,0.00,,,0.00,VWS V13.01,2013-01-01 06:26:00,
2013-01-01 01:30:00,42.2,26.8,23.24,South,182,3.0,5.0,54,0.00,,,0.00,VWS V13.01,2013-01-01 06:30:00,
2013-01-01 01:31:00,42.2,26.3,23.24,South,183,2.0,3.0,53,0.00,,,0.00,VWS V13.01,2013-01-01 06:31:00,
2013-01-01 01:35:00,42.2,26.3,23.24,South,183,0.0,4.0,53,0.00,,,0.00,VWS V13.01,2013-01-01 06:35:00,
2013-01-01 01:36:00,42.1,26.2,23.24,South,184,0.0,2.0,53,0.00,,,0.00,VWS V13.01,2013-01-01 06:36:00,
2013-01-01 01:40:00,42.2,26.3,23.24,South,184,1.0,3.0,53,0.00,,,0.00,VWS V13.01,2013-01-01 06:40:00,
2013-01-01 01:41:00,41.9,26.9,23.24,SSE,155,2.0,3.0,55,0.00,,,0.00,VWS V13.01,2013-01-01 06:41:00,
2013-01-01 01:45:00,42.0,26.6,23.24,SSE,152,0.0,4.0,54,0.00,,,0.00,VWS V13.01,2013-01-01 06:45:00,
2013-01-01 01:46:00,41.8,26.4,23.24,SSE,165,0.0,4.0,54,0.00,,,0.00,VWS V13.01,2013-01-01 06:46:00,
2013-01-01 01:50:00,41.9,26.5,23.24,SSE,160,1.0,4.0,54,0.00,,,0.00,VWS V13.01,2013-01-01 06:50:00,
2013-01-01 01:51:00,41.8,26.4,23.24,South,175,2.0,5.0,54,0.00,,,0.00,VWS V13.01,2013-01-01 06:51:00,
2013-01-01 01:55:00,41.8,26.4,23.24,SSE,164,0.0,4.0,54,0.00,,,0.00,VWS V13.01,2013-01-01 06:55:00,
2013-01-01 01:56:00,42.0,26.6,23.24,South,172,2.0,6.0,54,0.00,,,0.00,VWS V13.01,2013-01-01 06:56:00,
2013-01-01 02:00:00,41.9,26.5,23.24,South,177,3.0,5.0,54,0.00,,,0.00,VWS V13.01,2013-01-01 07:00:00,
2013-01-01 02:01:00,42.1,26.7,23.24,SE,125,2.0,3.0,54,0.00,,,0.00,VWS V13.01,2013-01-01 07:01:00,
2013-01-01 02:05:00,42.0,26.6,23.24,South,177,3.0,6.0,54,0.00,,,0.00,VWS V13.01,2013-01-01 07:05:00,
2013-01-01 02:06:00,42.2,26.3,23.24,SSE,165,0.0,4.0,53,0.00,,,0.00,VWS V13.01,2013-01-01 07:06:00,
2013-01-01 02:10:00,42.1,26.2,23.24,SSE,160,3.0,4.0,53,0.00,,,0.00,VWS V13.01,2013-01-01 07:10:00,
2013-01-01 02:11:00,42.2,26.3,23.24,South,172,0.0,4.0,53,0.00,,,0.00,VWS V13.01,2013-01-01 07:11:00,
2013-01-01 02:15:00,42.2,26.3,23.24,SSE,164,3.0,4.0,53,0.00,,,0.00,VWS V13.01,2013-01-01 07:15:00,
2013-01-01 02:16:00,42.1,26.2,23.24,South,173,3.0,3.0,53,0.00,,,0.00,VWS V13.01,2013-01-01 07:16:00,
2013-01-01 02:20:00,42.2,26.3,23.24,South,169,1.0,4.0,53,0.00,,,0.00,VWS V13.01,2013-01-01 07:20:00,
2013-01-01 02:21:00,42.1,26.7,23.24,South,173,2.0,3.0,54,0.00,,,0.00,VWS V13.01,2013-01-01 07:21:00,
2013-01-01 02:25:00,42.1,26.2,23.24,South,174,1.0,4.0,53,0.00,,,0.00,VWS V13.01,2013-01-01 07:25:00,
2013-01-01 02:26:00,42.2,26.8,23.24,South,176,0.0,3.0,54,0.00,,,0.00,VWS V13.01,2013-01-01 07:26:00,
2013-01-01 02:30:00,42.2,26.8,23.24,South,175,1.0,4.0,54,0.00,,,0.00,VWS V13.01,2013-01-01 07:30:00,
2013-01-01 02:31:00,42.2,26.3,23.24,South,177,0.0,3.0,53,0.00,,,0.00,VWS V13.01,2013-01-01 07:31:00,
2013-01-01 02:35:00,42.2,26.8,23.24,South,176,1.0,3.0,54,0.00,,,0.00,VWS V13.01,2013-01-01 07:35:00,
2013-01-01 02:36:00,42.3,26.9,23.24,South,176,0.0,2.0,54,0.00,,,0.00,VWS V13.01,2013-01-01 07:36:00,
2013-01-01 02:40:00,42.3,26.9,23.24,South,177,2.0,3.0,54,0.00,,,0.00,VWS V13.01,2013-01-01 07:40:00,
2013-01-01 02:41:00,42.3,26.9,23.24,South,176,0.0,2.0,54,0.00,,,0.00,VWS V13.01,2013-01-01 07:41:00,
2013-01-01 02:45:00,42.3,26.9,23.24,South,177,1.0,2.0,54,0.00,,,0.00,VWS V13.01,2013-01-01 07:45:00,
2013-01-01 02:46:00,42.0,26.6,23.24,South,177,0.0,1.0,54,0.00,,,0.00,VWS V13.01,2013-01-01 07:46:00,
2013-01-01 02:50:00,42.3,26.9,23.24,South,176,0.0,2.0,54,0.00,,,0.00,VWS V13.01,2013-01-01 07:50:00,
2013-01-01 02:51:00,42.1,27.1,23.24,South,176,0.0,1.0,55,0.00,,,0.00,VWS V13.01,2013-01-01 07:51:00,
2013-01-01 02:55:00,41.9,26.9,23.24,South,177,0.0,1.0,55,0.00,,,0.00,VWS V13.01,2013-01-01 07:55:00,
2013-01-01 02:56:00,41.9,26.9,23.24,South,176,0.0,2.0,55,0.00,,,0.00,VWS V13.01,2013-01-01 07:56:00,
2013-01-01 03:00:00,42.0,27.0,23.24,South,177,1.0,2.0,55,0.00,,,0.00,VWS V13.01,2013-01-01 08:00:00,
2013-01-01 03:01:00,41.8,26.8,23.24,South,177,0.0,2.0,55,0.00,,,0.00,VWS V13.01,2013-01-01 08:01:00,
2013-01-01 03:05:00,41.9,26.9,23.24,South,176,2.0,2.0,55,0.00,,,0.00,VWS V13.01,2013-01-01 08:05:00,
2013-01-01 03:06:00,41.7,26.7,23.24,South,177,0.0,1.0,55,0.00,,,0.00,VWS V13.01,2013-01-01 08:06:00,
2013-01-01 03:10:00,41.8,26.8,23.24,South,176,1.0,2.0,55,0.00,,,0.00,VWS V13.01,2013-01-01 08:10:00,
2013-01-01 03:11:00,41.7,27.2,23.24,South,176,1.0,3.0,56,0.00,,,0.00,VWS V13.01,2013-01-01 08:11:00,
2013-01-01 03:15:00,41.7,26.7,23.24,South,177,0.0,2.0,55,0.00,,,0.00,VWS V13.01,2013-01-01 08:15:00,
2013-01-01 03:16:00,41.8,27.3,23.24,South,176,0.0,2.0,56,0.00,,,0.00,VWS V13.01,2013-01-01 08:16:00,
2013-01-01 03:20:00,41.7,26.7,23.24,South,177,2.0,3.0,55,0.00,,,0.00,VWS V13.01,2013-01-01 08:20:00,
2013-01-01 03:21:00,41.7,27.2,23.24,South,177,1.0,2.0,56,0.00,,,0.00,VWS V13.01,2013-01-01 08:21:00,
2013-01-01 03:25:00,41.8,27.3,23.24,South,176,0.0,2.0,56,0.00,,,0.00,VWS V13.01,2013-01-01 08:25:00,
2013-01-01 03:26:00,41.5,27.0,23.24,South,178,2.0,4.0,56,0.00,,,0.00,VWS V13.01,2013-01-01 08:26:00,
2013-01-01 03:30:00,41.5,27.0,23.24,South,177,2.0,3.0,56,0.00,,,0.00,VWS V13.01,2013-01-01 08:30:00,
2013-01-01 03:31:00,41.6,27.1,23.24,South,179,2.0,3.0,56,0.00,,,0.00,VWS V13.01,2013-01-01 08:31:00,
2013-01-01 03:35:00,41.5,27.4,23.24,South,180,0.0,5.0,57,0.00,,,0.00,VWS V13.01,2013-01-01 08:35:00,
2013-01-01 03:36:00,41.6,27.1,23.24,South,191,0.0,3.0,56,0.00,,,0.00,VWS V13.01,2013-01-01 08:36:00,
2013-01-01 03:40:00,41.6,27.1,23.24,South,179,1.0,3.0,56,0.00,,,0.00,VWS V13.01,2013-01-01 08:40:00,
2013-01-01 03:41:00,41.7,27.6,23.24,South,191,0.0,2.0,57,0.00,,,0.00,VWS V13.01,2013-01-01 08:41:00,
2013-01-01 03:45:00,41.7,27.2,23.24,South,191,2.0,3.0,56,0.00,,,0.00,VWS V13.01,2013-01-01 08:45:00,
2013-01-01 03:46:00,41.8,27.3,23.24,South,191,0.0,0.0,56,0.00,,,0.00,VWS V13.01,2013-01-01 08:46:00,
2013-01-01 03:50:00,41.8,27.7,23.24,SSW,192,0.0,2.0,57,0.00,,,0.00,VWS V13.01,2013-01-01 08:50:00,
2013-01-01 03:51:00,41.7,27.2,23.24,SSW,192,0.0,1.0,56,0.00,,,0.00,VWS V13.01,2013-01-01 08:51:00,
2013-01-01 03:55:00,41.8,27.3,23.24,SSW,192,0.0,1.0,56,0.00,,,0.00,VWS V13.01,2013-01-01 08:55:00,
2013-01-01 03:56:00,41.6,27.9,23.24,SSW,192,0.0,0.0,58,0.00,,,0.00,VWS V13.01,2013-01-01 08:56:00,
2013-01-01 04:00:00,41.5,27.4,23.24,SSW,192,0.0,1.0,57,0.00,,,0.00,VWS V13.01,2013-01-01 09:00:00,
2013-01-01 04:01:00,41.7,28.0,23.24,SSW,192,0.0,1.0,58,0.00,,,0.00,VWS V13.01,2013-01-01 09:01:00,
2013-01-01 04:06:00,41.5,27.8,23.24,South,191,0.0,0.0,58,0.00,,,0.00,VWS V13.01,2013-01-01 09:06:00,
2013-01-01 04:11:00,41.3,27.2,23.24,SSW,192,0.0,0.0,57,0.00,,,0.00,VWS V13.01,2013-01-01 09:11:00,
2013-01-01 04:16:00,41.0,27.4,23.24,SSW,192,0.0,0.0,58,0.00,,,0.00,VWS V13.01,2013-01-01 09:16:00,
2013-01-01 04:21:00,41.1,27.9,23.24,South,191,1.0,2.0,59,0.00,,,0.00,VWS V13.01,2013-01-01 09:21:00,
2013-01-01 04:26:00,41.6,28.4,23.24,SSW,192,1.0,2.0,59,0.00,,,0.00,VWS V13.01,2013-01-01 09:26:00,
2013-01-01 04:31:00,42.0,27.9,23.24,SSW,192,0.0,1.0,57,0.00,,,0.00,VWS V13.01,2013-01-01 09:31:00,
2013-01-01 04:36:00,41.6,28.8,23.24,SSW,192,0.0,1.0,60,0.00,,,0.00,VWS V13.01,2013-01-01 09:36:00,
2013-01-01 04:41:00,41.4,28.6,23.24,South,191,0.0,0.0,60,0.00,,,0.00,VWS V13.01,2013-01-01 09:41:00,
2013-01-01 04:46:00,41.3,28.5,23.24,SSW,192,0.0,1.0,60,0.00,,,0.00,VWS V13.01,2013-01-01 09:46:00,
2013-01-01 04:51:00,41.2,27.6,23.24,SSW,192,0.0,0.0,58,0.00,,,0.00,VWS V13.01,2013-01-01 09:51:00,
2013-01-01 04:56:00,41.2,28.4,23.24,South,191,1.0,1.0,60,0.00,,,0.00,VWS V13.01,2013-01-01 09:56:00,
2013-01-01 05:01:00,41.5,29.1,23.24,SSW,192,0.0,0.0,61,0.00,,,0.00,VWS V13.01,2013-01-01 10:01:00,
2013-01-01 05:06:00,41.5,29.1,23.24,SSW,192,0.0,1.0,61,0.00,,,0.00,VWS V13.01,2013-01-01 10:06:00,
2013-01-01 05:11:00,41.5,28.7,23.24,South,191,0.0,0.0,60,0.00,,,0.00,VWS V13.01,2013-01-01 10:11:00,
2013-01-01 05:16:00,40.9,28.1,23.24,SSW,192,0.0,0.0,60,0.00,,,0.00,VWS V13.01,2013-01-01 10:16:00,
2013-01-01 05:21:00,40.6,28.6,23.24,SSW,192,0.0,1.0,62,0.00,,,0.00,VWS V13.01,2013-01-01 10:21:00,
2013-01-01 05:26:00,40.7,28.7,23.24,SSW,192,0.0,0.0,62,0.00,,,0.00,VWS V13.01,2013-01-01 10:26:00,
2013-01-01 05:31:00,40.8,28.4,23.24,South,191,0.0,0.0,61,0.00,,,0.00,VWS V13.01,2013-01-01 10:31:00,
2013-01-01 05:36:00,40.7,28.3,23.24,SSW,192,0.0,0.0,61,0.00,,,0.00,VWS V13.01,2013-01-01 10:36:00,
2013-01-01 05:41:00,41.1,29.1,23.24,South,191,0.0,1.0,62,0.00,,,0.00,VWS V13.01,2013-01-01 10:41:00,
2013-01-01 05:46:00,41.3,28.9,23.24,SSW,192,0.0,0.0,61,0.00,,,0.00,VWS V13.01,2013-01-01 10:46:00,
2013-01-01 05:51:00,40.9,28.5,23.24,SSW,192,0.0,0.0,61,0.00,,,0.00,VWS V13.01,2013-01-01 10:51:00,
2013-01-01 05:56:00,40.8,28.8,23.24,SSW,192,0.0,0.0,62,0.00,,,0.00,VWS V13.01,2013-01-01 10:56:00,
2013-01-01 06:01:00,40.8,28.8,23.24,South,191,0.0,0.0,62,0.00,,,0.00,VWS V13.01,2013-01-01 11:01:00,
2013-01-01 06:06:00,40.7,28.7,23.24,South,191,0.0,0.0,62,0.00,,,0.00,VWS V13.01,2013-01-01 11:06:00,
2013-01-01 06:11:00,40.6,29.8,23.24,South,191,1.0,2.0,65,0.00,,,0.00,VWS V13.01,2013-01-01 11:11:00,
2013-01-01 06:16:00,41.2,30.0,23.24,South,191,0.0,2.0,64,0.00,,,0.00,VWS V13.01,2013-01-01 11:16:00,
2013-01-01 06:21:00,41.6,30.0,23.24,SSW,192,0.0,2.0,63,0.00,,,0.00,VWS V13.01,2013-01-01 11:21:00,
2013-01-01 06:26:00,41.9,30.2,23.24,South,191,1.0,1.0,63,0.00,,,0.00,VWS V13.01,2013-01-01 11:26:00,
2013-01-01 06:31:00,42.0,30.7,23.24,South,191,1.0,1.0,64,0.00,,,0.00,VWS V13.01,2013-01-01 11:31:00,
2013-01-01 06:36:00,41.7,30.4,23.24,SSW,192,0.0,2.0,64,0.00,,,0.00,VWS V13.01,2013-01-01 11:36:00,
2013-01-01 06:41:00,41.2,30.0,23.24,SSW,192,0.0,0.0,64,0.00,,,0.00,VWS V13.01,2013-01-01 11:41:00,
2013-01-01 06:46:00,40.4,29.2,23.24,South,191,0.0,0.0,64,0.00,,,0.00,VWS V13.01,2013-01-01 11:46:00,
2013-01-01 06:51:00,40.3,29.9,23.24,SSW,192,1.0,2.0,66,0.00,,,0.00,VWS V13.01,2013-01-01 11:51:00,
2013-01-01 06:56:00,40.8,30.0,23.24,SSW,192,0.0,2.0,65,0.00,,,0.00,VWS V13.01,2013-01-01 11:56:00,
2013-01-01 07:01:00,41.3,30.1,23.24,SSW,192,0.0,1.0,64,0.00,,,0.00,VWS V13.01,2013-01-01 12:01:00,
2013-01-01 07:06:00,41.7,30.4,23.24,South,191,1.0,2.0,64,0.00,,,0.00,VWS V13.01,2013-01-01 12:06:00,
2013-01-01 07:11:00,42.4,29.9,23.24,SSW,192,2.0,3.0,61,0.00,,,0.00,VWS V13.01,2013-01-01 12:11:00,
2013-01-01 07:16:00,42.7,30.2,23.24,SSW,192,0.0,0.0,61,0.00,,,0.00,VWS V13.01,2013-01-01 12:16:00,
2013-01-01 07:21:00,42.0,31.1,23.24,SSW,192,0.0,1.0,65,0.00,,,0.00,VWS V13.01,2013-01-01 12:21:00,
2013-01-01 07:26:00,41.3,30.4,23.24,SSW,192,0.0,1.0,65,0.00,,,0.00,VWS V13.01,2013-01-01 12:26:00,
2013-01-01 07:31:00,41.0,29.8,23.24,South,191,0.0,0.0,64,0.00,,,0.00,VWS V13.01,2013-01-01 12:31:00,
2013-01-01 07:36:00,41.0,30.1,23.24,SSW,192,0.0,1.0,65,0.00,,,0.00,VWS V13.01,2013-01-01 12:36:00,
2013-01-01 07:41:00,41.0,29.8,23.24,SSW,192,0.0,0.0,64,0.00,,,0.00,VWS V13.01,2013-01-01 12:41:00,
2013-01-01 07:46:00,40.9,30.4,23.24,SSW,192,0.0,1.0,66,0.00,,,0.00,VWS V13.01,2013-01-01 12:46:00,
2013-01-01 07:51:00,41.2,30.3,23.24,South,191,0.0,0.0,65,0.00,,,0.00,VWS V13.01,2013-01-01 12:51:00,
2013-01-01 07:56:00,41.1,30.2,23.24,South,191,0.0,0.0,65,0.00,,,0.00,VWS V13.01,2013-01-01 12:56:00,
2013-01-01 08:01:00,41.0,30.1,23.24,South,191,0.0,1.0,65,0.00,,,0.00,VWS V13.01,2013-01-01 13:01:00,
2013-01-01 08:06:00,41.3,30.4,23.24,South,191,0.0,0.0,65,0.00,,,0.00,VWS V13.01,2013-01-01 13:06:00,
2013-01-01 08:11:00,41.5,30.6,23.24,SSW,192,0.0,1.0,65,0.00,,,0.00,VWS V13.01,2013-01-01 13:11:00,
2013-01-01 08:16:00,41.3,30.4,23.24,SSW,192,0.0,1.0,65,0.00,,,0.00,VWS V13.01,2013-01-01 13:16:00,
2013-01-01 08:21:00,41.0,30.1,23.24,South,191,1.0,1.0,65,0.00,,,0.00,VWS V13.01,2013-01-01 13:21:00,
2013-01-01 08:26:00,41.1,30.2,23.24,South,191,0.0,1.0,65,0.00,,,0.00,VWS V13.01,2013-01-01 13:26:00,
2013-01-01 08:31:00,41.0,29.8,23.24,SSW,192,0.0,0.0,64,0.00,,,0.00,VWS V13.01,2013-01-01 13:31:00,
2013-01-01 08:36:00,41.2,30.3,23.24,South,191,0.0,1.0,65,0.00,,,0.00,VWS V13.01,2013-01-01 13:36:00,
2013-01-01 08:41:00,40.9,29.7,23.24,South,191,0.0,1.0,64,0.00,,,0.00,VWS V13.01,2013-01-01 13:41:00,
2013-01-01 08:46:00,40.8,30.0,23.24,SSW,192,0.0,0.0,65,0.00,,,0.00,VWS V13.01,2013-01-01 13:46:00,
2013-01-01 08:51:00,40.8,30.0,23.24,South,191,0.0,1.0,65,0.00,,,0.00,VWS V13.01,2013-01-01 13:51:00,
2013-01-01 08:56:00,40.7,29.9,23.24,SSW,192,0.0,1.0,65,0.00,,,0.00,VWS V13.01,2013-01-01 13:56:00,
2013-01-01 09:01:00,40.8,30.0,23.24,SSW,192,1.0,1.0,65,0.00,,,0.00,VWS V13.01,2013-01-01 14:01:00,
2013-01-01 09:06:00,40.8,30.3,23.24,SSW,192,0.0,0.0,66,0.00,,,0.00,VWS V13.01,2013-01-01 14:06:00,
2013-01-01 09:11:00,40.7,30.2,23.24,South,191,0.0,0.0,66,0.00,,,0.00,VWS V13.01,2013-01-01 14:11:00,
2013-01-01 09:16:00,40.8,30.7,23.24,SSW,192,1.0,1.0,67,0.00,,,0.00,VWS V13.01,2013-01-01 14:16:00,
2013-01-01 09:21:00,41.3,30.8,23.24,South,191,0.0,1.0,66,0.00,,,0.00,VWS V13.01,2013-01-01 14:21:00,
2013-01-01 09:26:00,41.9,31.8,23.24,South,191,0.0,1.0,67,0.00,,,0.00,VWS V13.01,2013-01-01 14:26:00,
2013-01-01 09:31:00,41.9,31.4,23.24,SSW,192,0.0,1.0,66,0.00,,,0.00,VWS V13.01,2013-01-01 14:31:00,
2013-01-01 09:36:00,41.9,32.1,23.24,South,191,0.0,1.0,68,0.00,,,0.00,VWS V13.01,2013-01-01 14:36:00,
2013-01-01 09:41:00,41.9,31.8,23.24,South,191,0.0,1.0,67,0.00,,,0.00,VWS V13.01,2013-01-01 14:41:00,
2013-01-01 09:46:00,41.9,31.4,23.24,South,191,0.0,1.0,66,0.00,,,0.00,VWS V13.01,2013-01-01 14:46:00,
2013-01-01 09:51:00,41.6,31.8,23.24,South,191,0.0,1.0,68,0.00,,,0.00,VWS V13.01,2013-01-01 14:51:00,
2013-01-01 09:56:00,41.8,32.0,23.24,South,191,0.0,1.0,68,0.00,,,0.00,VWS V13.01,2013-01-01 14:56:00,
2013-01-01 10:01:00,42.0,30.7,23.24,SSW,192,0.0,0.0,64,0.00,,,0.00,VWS V13.01,2013-01-01 15:01:00,
2013-01-01 10:06:00,42.3,31.0,23.24,SSW,192,0.0,1.0,64,0.00,,,0.00,VWS V13.01,2013-01-01 15:06:00,
2013-01-01 10:11:00,42.7,30.6,23.24,SSW,192,0.0,1.0,62,0.00,,,0.00,VWS V13.01,2013-01-01 15:11:00,
2013-01-01 10:16:00,42.7,30.6,23.24,SSW,192,0.0,0.0,62,0.00,,,0.00,VWS V13.01,2013-01-01 15:16:00,
2013-01-01 10:21:00,42.7,31.0,23.24,South,191,0.0,0.0,63,0.00,,,0.00,VWS V13.01,2013-01-01 15:21:00,
2013-01-01 10:26:00,42.8,31.1,23.24,SSW,192,0.0,0.0,63,0.00,,,0.00,VWS V13.01,2013-01-01 15:26:00,
2013-01-01 10:31:00,43.2,31.1,23.24,South,191,0.0,2.0,62,0.00,,,0.00,VWS V13.01,2013-01-01 15:31:00,
2013-01-01 10:36:00,43.6,30.6,23.24,SSW,192,2.0,4.0,60,0.00,,,0.00,VWS V13.01,2013-01-01 15:36:00,
2013-01-01 10:41:00,43.7,30.7,23.24,South,191,1.0,1.0,60,0.00,,,0.00,VWS V13.01,2013-01-01 15:41:00,
2013-01-01 10:46:00,43.9,30.9,23.24,SSW,192,0.0,1.0,60,0.00,,,0.00,VWS V13.01,2013-01-01 15:46:00,
2013-01-01 10:51:00,43.9,30.9,23.24,South,191,0.0,2.0,60,0.00,,,0.00,VWS V13.01,2013-01-01 15:51:00,
2013-01-01 10:56:00,44.1,30.7,23.24,South,191,0.0,2.0,59,0.00,,,0.00,VWS V13.01,2013-01-01 15:56:00,
2013-01-01 11:01:00,44.1,30.7,23.24,SSW,192,0.0,1.0,59,0.00,,,0.00,VWS V13.01,2013-01-01 16:01:00,
2013-01-01 11:06:00,44.3,30.9,23.24,South,191,1.0,1.0,59,0.00,,,0.00,VWS V13.01,2013-01-01 16:06:00,
2013-01-01 11:11:00,44.3,30.9,23.24,South,191,1.0,1.0,59,0.00,,,0.00,VWS V13.01,2013-01-01 16:11:00,
2013-01-01 11:16:00,44.2,31.2,23.24,SSW,192,0.0,1.0,60,0.00,,,0.00,VWS V13.01,2013-01-01 16:16:00,
2013-01-01 11:21:00,44.2,31.2,23.24,South,191,3.0,3.0,60,0.00,,,0.00,VWS V13.01,2013-01-01 16:21:00,
2013-01-01 11:27:00,44.5,32.3,23.24,SSW,192,0.0,1.0,62,0.00,,,0.00,VWS V13.01,2013-01-01 16:27:00,
2013-01-01 11:31:00,44.8,32.2,23.24,SSW,192,0.0,1.0,61,0.00,,,0.00,VWS V13.01,2013-01-01 16:31:00,
2013-01-01 11:37:00,44.7,32.1,23.24,South,191,0.0,3.0,61,0.00,,,0.00,VWS V13.01,2013-01-01 16:37:00,
2013-01-01 11:42:00,44.9,32.3,23.24,South,191,0.0,2.0,61,0.00,,,0.00,VWS V13.01,2013-01-01 16:42:00,
2013-01-01 11:47:00,45.0,32.4,23.24,SW,214,1.0,3.0,61,0.00,,,0.00,VWS V13.01,2013-01-01 16:47:00,
2013-01-01 11:52:00,44.9,32.3,23.24,SW,214,3.0,3.0,61,0.00,,,0.00,VWS V13.01,2013-01-01 16:52:00,
2013-01-01 11:57:00,44.9,32.7,23.24,SW,214,0.0,2.0,62,0.00,,,0.00,VWS V13.01,2013-01-01 16:57:00,
2013-01-01 12:02:00,44.7,32.5,23.24,SW,214,0.0,3.0,62,0.00,,,0.00,VWS V13.01,2013-01-01 17:02:00,
2013-01-01 12:07:00,44.6,32.4,23.24,SW,214,0.0,3.0,62,0.00,,,0.00,VWS V13.01,2013-01-01 17:07:00,
2013-01-01 12:12:00,44.8,32.6,23.24,SW,214,1.0,2.0,62,0.00,,,0.00,VWS V13.01,2013-01-01 17:12:00,
2013-01-01 12:17:00,45.1,32.5,23.24,WSW,240,4.0,4.0,61,0.00,,,0.00,VWS V13.01,2013-01-01 17:17:00,
2013-01-01 12:22:00,45.2,32.6,23.24,WSW,240,0.0,3.0,61,0.00,,,0.00,VWS V13.01,2013-01-01 17:22:00,
2013-01-01 12:27:00,45.3,33.1,23.24,West,268,4.0,6.0,62,0.00,,,0.00,VWS V13.01,2013-01-01 17:27:00,
2013-01-01 12:32:00,45.4,33.2,23.24,WSW,254,3.0,4.0,62,0.00,,,0.00,VWS V13.01,2013-01-01 17:32:00,
2013-01-01 12:37:00,45.3,33.1,23.24,WSW,238,2.0,6.0,62,0.00,,,0.00,VWS V13.01,2013-01-01 17:37:00,
2013-01-01 12:42:00,45.4,33.2,23.24,SW,229,2.0,5.0,62,0.00,,,0.00,VWS V13.01,2013-01-01 17:42:00,
2013-01-01 12:47:00,45.2,33.0,23.24,SW,221,2.0,5.0,62,0.00,,,0.00,VWS V13.01,2013-01-01 17:47:00,
2013-01-01 12:52:00,45.2,33.0,23.24,WSW,240,4.0,5.0,62,0.00,,,0.00,VWS V13.01,2013-01-01 17:52:00,
2013-01-01 12:57:00,45.2,33.0,23.24,WSW,242,2.0,6.0,62,0.00,,,0.00,VWS V13.01,2013-01-01 17:57:00,
2013-01-01 13:02:00,45.1,33.3,23.24,WSW,254,3.0,5.0,63,0.00,,,0.00,VWS V13.01,2013-01-01 18:02:00,
2013-01-01 13:07:00,45.3,33.1,23.24,WSW,250,4.0,6.0,62,0.00,,,0.00,VWS V13.01,2013-01-01 18:07:00,
2013-01-01 13:12:00,45.3,33.1,23.24,WSW,250,1.0,4.0,62,0.00,,,0.00,VWS V13.01,2013-01-01 18:12:00,
2013-01-01 13:17:00,45.3,33.5,23.24,WSW,240,1.0,4.0,63,0.00,,,0.00,VWS V13.01,2013-01-01 18:17:00,
2013-01-01 13:22:00,45.2,33.0,23.24,SW,232,4.0,6.0,62,0.00,,,0.00,VWS V13.01,2013-01-01 18:22:00,
2013-01-01 13:27:00,45.2,33.0,23.24,SW,232,1.0,3.0,62,0.00,,,0.00,VWS V13.01,2013-01-01 18:27:00,
2013-01-01 13:32:00,45.2,33.4,23.24,SW,234,1.0,4.0,63,0.00,,,0.00,VWS V13.01,2013-01-01 18:32:00,
2013-01-01 13:37:00,45.4,33.6,23.24,SW,233,0.0,3.0,63,0.00,,,0.00,VWS V13.01,2013-01-01 18:37:00,
2013-01-01 13:42:00,45.5,33.2,23.24,SW,232,2.0,2.0,62,0.00,,,0.00,VWS V13.01,2013-01-01 18:42:00,
2013-01-01 13:47:00,45.5,33.2,23.24,SW,232,0.0,2.0,62,0.00,,,0.00,VWS V13.01,2013-01-01 18:47:00,
2013-01-01 13:52:00,45.1,33.3,23.24,SW,232,1.0,2.0,63,0.00,,,0.00,VWS V13.01,2013-01-01 18:52:00,
2013-01-01 13:57:00,45.2,33.4,23.24,SW,233,2.0,4.0,63,0.00,,,0.00,VWS V13.01,2013-01-01 18:57:00,
2013-01-01 14:02:00,45.5,33.7,23.24,SW,233,1.0,4.0,63,0.00,,,0.00,VWS V13.01,2013-01-01 19:02:00,
2013-01-01 14:07:00,45.8,33.9,23.24,SW,234,3.0,3.0,63,0.00,,,0.00,VWS V13.01,2013-01-01 19:07:00,
2013-01-01 14:12:00,45.8,33.5,23.24,WSW,246,1.0,6.0,62,0.00,,,0.00,VWS V13.01,2013-01-01 19:12:00,
2013-01-01 14:17:00,45.7,33.4,23.24,WSW,246,4.0,5.0,62,0.00,,,0.00,VWS V13.01,2013-01-01 19:17:00,
2013-01-01 14:22:00,45.5,33.7,23.24,WSW,246,1.0,4.0,63,0.00,,,0.00,VWS V13.01,2013-01-01 19:22:00,
2013-01-01 14:27:00,45.6,33.8,23.24,WSW,246,0.0,2.0,63,0.00,,,0.00,VWS V13.01,2013-01-01 19:27:00,
2013-01-01 14:32:00,45.8,33.9,23.24,WSW,246,4.0,4.0,63,0.00,,,0.00,VWS V13.01,2013-01-01 19:32:00,
2013-01-01 14:37:00,45.8,33.9,23.24,WSW,242,1.0,4.0,63,0.00,,,0.00,VWS V13.01,2013-01-01 19:37:00,
2013-01-01 14:42:00,45.9,34.0,23.24,WSW,242,2.0,3.0,63,0.00,,,0.00,VWS V13.01,2013-01-01 19:42:00,
2013-01-01 14:47:00,45.9,33.6,23.24,WSW,244,3.0,4.0,62,0.00,,,0.00,VWS V13.01,2013-01-01 19:47:00,
2013-01-01 14:52:00,45.7,33.4,23.24,West,259,2.0,5.0,62,0.00,,,0.00,VWS V13.01,2013-01-01 19:52:00,
2013-01-01 14:57:00,45.6,33.8,23.24,West,259,1.0,4.0,63,0.00,,,0.00,VWS V13.01,2013-01-01 19:57:00,
2013-01-01 15:02:00,45.7,33.8,23.24,West,260,3.0,4.0,63,0.00,,,0.00,VWS V13.01,2013-01-01 20:02:00,
2013-01-01 15:07:00,45.7,33.8,23.24,West,260,0.0,5.0,63,0.00,,,0.00,VWS V13.01,2013-01-01 20:07:00,
2013-01-01 15:12:00,45.8,33.9,23.24,WSW,254,3.0,5.0,63,0.00,,,0.00,VWS V13.01,2013-01-01 20:12:00,
2013-01-01 15:17:00,45.8,33.9,23.24,West,259,3.0,5.0,63,0.00,,,0.00,VWS V13.01,2013-01-01 20:17:00,
2013-01-01 15:22:00,45.8,33.9,23.24,West,281,5.0,6.0,63,0.00,,,0.00,VWS V13.01,2013-01-01 20:22:00,
2013-01-01 15:27:00,45.8,33.9,23.24,WSW,254,3.0,6.0,63,0.00,,,0.00,VWS V13.01,2013-01-01 20:27:00,
2013-01-01 15:32:00,45.8,33.9,23.24,WSW,253,2.0,4.0,63,0.00,,,0.00,VWS V13.01,2013-01-01 20:32:00,
2013-01-01 15:37:00,45.8,33.9,23.24,WSW,254,0.0,3.0,63,0.00,,,0.00,VWS V13.01,2013-01-01 20:37:00,
2013-01-01 15:42:00,45.9,33.6,23.24,WSW,257,1.0,5.0,62,0.00,,,0.00,VWS V13.01,2013-01-01 20:42:00,
2013-01-01 15:47:00,45.8,33.5,23.24,WSW,257,2.0,4.0,62,0.00,,,0.00,VWS V13.01,2013-01-01 20:47:00,
2013-01-01 15:52:00,45.7,33.8,23.24,WSW,257,0.0,3.0,63,0.00,,,0.00,VWS V13.01,2013-01-01 20:52:00,
2013-01-01 15:57:00,45.8,33.9,23.24,West,263,4.0,6.0,63,0.00,,,0.00,VWS V13.01,2013-01-01 20:57:00,
2013-01-01 16:02:00,45.7,33.8,23.24,West,261,2.0,4.0,63,0.00,,,0.00,VWS V13.01,2013-01-01 21:02:00,
2013-01-01 16:07:00,45.6,33.3,23.24,WSW,257,3.0,5.0,62,0.00,,,0.00,VWS V13.01,2013-01-01 21:07:00,
2013-01-01 16:12:00,45.6,33.8,23.24,WSW,257,0.0,3.0,63,0.00,,,0.00,VWS V13.01,2013-01-01 21:12:00,
2013-01-01 16:17:00,45.7,33.8,23.24,WSW,257,2.0,2.0,63,0.00,,,0.00,VWS V13.01,2013-01-01 21:17:00,
2013-01-01 16:22:00,45.8,33.9,23.24,WSW,257,1.0,3.0,63,0.00,,,0.00,VWS V13.01,2013-01-01 21:22:00,
2013-01-01 16:27:00,45.8,33.9,23.24,WSW,257,0.0,2.0,63,0.00,,,0.00,VWS V13.01,2013-01-01 21:27:00,
2013-01-01 16:32:00,45.8,33.9,23.24,WSW,257,0.0,2.0,63,0.00,,,0.00,VWS V13.01,2013-01-01 21:32:00,
2013-01-01 16:37:00,45.8,34.3,23.24,WSW,257,1.0,1.0,64,0.00,,,0.00,VWS V13.01,2013-01-01 21:37:00,
2013-01-01 16:42:00,45.6,33.8,23.24,WSW,257,0.0,0.0,63,0.00,,,0.00,VWS V13.01,2013-01-01 21:42:00,
2013-01-01 16:47:00,45.1,33.7,23.24,WSW,256,0.0,0.0,64,0.00,,,0.00,VWS V13.01,2013-01-01 21:47:00,
2013-01-01 16:52:00,44.9,33.9,23.24,WSW,257,0.0,1.0,65,0.00,,,0.00,VWS V13.01,2013-01-01 21:52:00,
2013-01-01 16:57:00,44.9,33.9,23.24,WSW,257,0.0,1.0,65,0.00,,,0.00,VWS V13.01,2013-01-01 21:57:00,
2013-01-01 17:02:00,44.9,33.9,23.24,WSW,257,0.0,0.0,65,0.00,,,0.00,VWS V13.01,2013-01-01 22:02:00,
2013-01-01 17:07:00,44.8,33.8,23.24,WSW,256,0.0,0.0,65,0.00,,,0.00,VWS V13.01,2013-01-01 22:07:00,
2013-01-01 17:12:00,44.8,33.8,23.24,WSW,257,0.0,1.0,65,0.00,,,0.00,VWS V13.01,2013-01-01 22:12:00,
2013-01-01 17:17:00,44.9,33.9,23.24,WSW,257,0.0,0.0,65,0.00,,,0.00,VWS V13.01,2013-01-01 22:17:00,
2013-01-01 17:22:00,44.9,33.9,23.24,WSW,256,2.0,4.0,65,0.00,,,0.00,VWS V13.01,2013-01-01 22:22:00,
2013-01-01 17:27:00,44.9,33.9,23.24,WSW,256,2.0,2.0,65,0.00,,,0.00,VWS V13.01,2013-01-01 22:27:00,
2013-01-01 17:32:00,44.8,33.8,23.24,WSW,257,0.0,1.0,65,0.00,,,0.00,VWS V13.01,2013-01-01 22:32:00,
2013-01-01 17:37:00,44.7,33.7,23.24,WSW,257,0.0,0.0,65,0.00,,,0.00,VWS V13.01,2013-01-01 22:37:00,
2013-01-01 17:42:00,44.6,33.6,23.24,WSW,257,0.0,0.0,65,0.00,,,0.00,VWS V13.01,2013-01-01 22:42:00,
2013-01-01 17:47:00,44.1,33.1,23.24,WSW,256,0.0,1.0,65,0.00,,,0.00,VWS V13.01,2013-01-01 22:47:00,
2013-01-01 17:52:00,43.8,33.2,23.24,WSW,257,0.0,1.0,66,0.00,,,0.00,VWS V13.01,2013-01-01 22:52:00,
2013-01-01 17:57:00,43.7,33.1,23.24,WSW,256,0.0,1.0,66,0.00,,,0.00,VWS V13.01,2013-01-01 22:57:00,
2013-01-01 18:02:00,43.9,33.7,23.24,WSW,257,1.0,1.0,67,0.00,,,0.00,VWS V13.01,2013-01-01 23:02:00,
2013-01-01 18:07:00,44.4,33.8,23.24,WSW,257,0.0,2.0,66,0.00,,,0.00,VWS V13.01,2013-01-01 23:07:00,
2013-01-01 18:12:00,44.7,34.0,23.24,WSW,257,0.0,2.0,66,0.00,,,0.00,VWS V13.01,2013-01-01 23:12:00,
2013-01-01 18:17:00,44.9,34.2,23.24,WSW,257,1.0,1.0,66,0.00,,,0.00,VWS V13.01,2013-01-01 23:17:00,
2013-01-01 18:22:00,45.0,34.0,23.24,WSW,256,2.0,4.0,65,0.00,,,0.00,VWS V13.01,2013-01-01 23:22:00,
2013-01-01 18:27:00,44.8,33.8,23.24,WSW,245,3.0,6.0,65,0.00,,,0.00,VWS V13.01,2013-01-01 23:27:00,
2013-01-01 18:32:00,44.6,33.6,23.24,WSW,246,2.0,5.0,65,0.00,,,0.00,VWS V13.01,2013-01-01 23:32:00,
2013-01-01 18:37:00,44.5,33.5,23.24,WSW,253,3.0,7.0,65,0.00,,,0.00,VWS V13.01,2013-01-01 23:37:00,
2013-01-01 18:42:00,44.5,33.5,23.24,WSW,253,3.0,5.0,65,0.00,,,0.00,VWS V13.01,2013-01-01 23:42:00,
2013-01-01 18:47:00,44.6,33.6,23.24,West,263,1.0,3.0,65,0.00,,,0.00,VWS V13.01,2013-01-01 23:47:00,
2013-01-01 18:52:00,44.7,33.7,23.24,West,263,1.0,3.0,65,0.00,,,0.00,VWS V13.01,2013-01-01 23:52:00,
2013-01-01 18:57:00,44.5,33.5,23.24,West,268,5.0,7.0,65,0.00,,,0.00,VWS V13.01,2013-01-01 23:57:00,
2013-01-01 19:02:00,44.4,33.4,23.24,WSW,250,2.0,6.0,65,0.00,,,0.00,VWS V13.01,2013-01-02 00:02:00,
2013-01-01 19:07:00,44.2,33.2,23.24,WSW,251,3.0,10.0,65,0.00,,,0.00,VWS V13.01,2013-01-02 00:07:00,
2013-01-01 19:12:00,44.1,33.1,23.24,WSW,249,3.0,5.0,65,0.00,,,0.00,VWS V13.01,2013-01-02 00:12:00,
2013-01-01 19:17:00,44.0,33.0,23.24,WSW,253,5.0,6.0,65,0.00,,,0.00,VWS V13.01,2013-01-02 00:17:00,
2013-01-01 19:22:00,44.0,33.0,23.24,West,259,5.0,5.0,65,0.00,,,0.00,VWS V13.01,2013-01-02 00:22:00,
2013-01-01 19:27:00,44.1,33.1,23.24,West,273,6.0,6.0,65,0.00,,,0.00,VWS V13.01,2013-01-02 00:27:00,
2013-01-01 19:32:00,44.1,33.1,23.24,West,267,2.0,5.0,65,0.00,,,0.00,VWS V13.01,2013-01-02 00:32:00,
2013-01-01 19:37:00,44.0,33.0,23.24,West,272,2.0,6.0,65,0.00,,,0.00,VWS V13.01,2013-01-02 00:37:00,
2013-01-01 19:42:00,44.1,33.1,23.24,West,262,2.0,4.0,65,0.00,,,0.00,VWS V13.01,2013-01-02 00:42:00,
2013-01-01 19:47:00,43.9,32.9,23.24,West,265,4.0,6.0,65,0.00,,,0.00,VWS V13.01,2013-01-02 00:47:00,
2013-01-01 19:52:00,43.4,32.4,23.24,West,269,4.0,10.0,65,0.00,,,0.00,VWS V13.01,2013-01-02 00:52:00,
2013-01-01 19:57:00,43.4,32.4,23.24,West,280,1.0,6.0,65,0.00,,,0.00,VWS V13.01,2013-01-02 00:57:00,
2013-01-01 20:02:00,43.3,32.7,23.24,WSW,254,6.0,11.0,66,0.00,,,0.00,VWS V13.01,2013-01-02 01:02:00,
2013-01-01 20:07:00,43.2,32.6,23.24,West,263,3.0,7.0,66,0.00,,,0.00,VWS V13.01,2013-01-02 01:07:00,
2013-01-01 20:12:00,42.9,32.3,23.24,WSW,246,1.0,12.0,66,0.00,,,0.00,VWS V13.01,2013-01-02 01:12:00,
2013-01-01 20:17:00,42.8,32.2,23.24,WSW,250,7.0,10.0,66,0.00,,,0.00,VWS V13.01,2013-01-02 01:17:00,
2013-01-01 20:22:00,42.7,32.5,23.24,WNW,283,1.0,10.0,67,0.00,,,0.00,VWS V13.01,2013-01-02 01:22:00,
2013-01-01 20:27:00,42.7,32.5,23.24,WSW,240,0.0,5.0,67,0.00,,,0.00,VWS V13.01,2013-01-02 01:27:00,
2013-01-01 20:32:00,42.9,32.7,23.24,West,269,2.0,6.0,67,0.00,,,0.00,VWS V13.01,2013-01-02 01:32:00,
2013-01-01 20:37:00,42.8,32.6,23.24,WSW,257,4.0,6.0,67,0.00,,,0.00,VWS V13.01,2013-01-02 01:37:00,
2013-01-01 20:42:00,42.8,32.6,23.24,SW,227,5.0,10.0,67,0.00,,,0.00,VWS V13.01,2013-01-02 01:42:00,
2013-01-01 20:47:00,42.6,32.4,23.24,WSW,244,4.0,10.0,67,0.00,,,0.00,VWS V13.01,2013-01-02 01:47:00,
2013-01-01 20:52:00,42.5,32.3,23.24,WSW,239,6.0,10.0,67,0.00,,,0.00,VWS V13.01,2013-01-02 01:52:00,
2013-01-01 20:57:00,42.5,32.3,23.24,WSW,254,6.0,9.0,67,0.00,,,0.00,VWS V13.01,2013-01-02 01:57:00,
2013-01-01 21:02:00,42.3,32.5,23.24,WSW,246,5.0,10.0,68,0.00,,,0.00,VWS V13.01,2013-01-02 02:02:00,
2013-01-01 21:07:00,42.3,32.5,23.24,West,266,2.0,9.0,68,0.00,,,0.00,VWS V13.01,2013-01-02 02:07:00,
2013-01-01 21:12:00,42.2,32.4,23.24,West,260,1.0,7.0,68,0.00,,,0.00,VWS V13.01,2013-01-02 02:12:00,
2013-01-01 21:17:00,42.2,32.4,23.24,WSW,250,1.0,9.0,68,0.00,,,0.00,VWS V13.01,2013-01-02 02:17:00,
2013-01-01 21:22:00,42.2,32.4,23.24,WSW,246,6.0,10.0,68,0.00,,,0.00,VWS V13.01,2013-01-02 02:22:00,
2013-01-01 21:27:00,41.9,32.1,23.24,West,263,7.0,9.0,68,0.00,,,0.00,VWS V13.01,2013-01-02 02:27:00,
2013-01-01 21:32:00,41.7,32.3,23.24,SW,233,1.0,11.0,69,0.00,,,0.00,VWS V13.01,2013-01-02 02:32:00,
2013-01-01 21:37:00,41.7,32.3,23.24,West,259,7.0,13.0,69,0.00,,,0.00,VWS V13.01,2013-01-02 02:37:00,
2013-01-01 21:42:00,41.6,32.2,23.24,WNW,295,3.0,7.0,69,0.00,,,0.00,VWS V13.01,2013-01-02 02:42:00,
2013-01-01 21:47:00,41.6,32.2,23.24,West,262,6.0,13.0,69,0.00,,,0.00,VWS V13.01,2013-01-02 02:47:00,
2013-01-01 21:52:00,41.6,32.2,23.24,SW,225,11.0,11.0,69,0.00,,,0.00,VWS V13.01,2013-01-02 02:52:00,
2013-01-01 21:57:00,41.6,32.2,23.24,WSW,250,5.0,10.0,69,0.00,,,0.00,VWS V13.01,2013-01-02 02:57:00,
2013-01-01 22:02:00,41.6,32.2,23.24,West,263,2.0,6.0,69,0.00,,,0.00,VWS V13.01,2013-01-02 03:02:00,
2013-01-01 22:07:00,41.7,32.3,23.24,SW,233,5.0,10.0,69,0.00,,,0.00,VWS V13.01,2013-01-02 03:07:00,
2013-01-01 22:12:00,41.7,32.3,23.24,WSW,250,5.0,10.0,69,0.00,,,0.00,VWS V13.01,2013-01-02 03:12:00,
2013-01-01 22:17:00,41.7,32.3,23.24,WSW,241,8.0,8.0,69,0.00,,,0.00,VWS V13.01,2013-01-02 03:17:00,
2013-01-01 22:22:00,41.6,32.6,23.24,SW,232,4.0,8.0,70,0.00,,,0.00,VWS V13.01,2013-01-02 03:22:00,
2013-01-01 22:27:00,41.6,32.2,23.24,West,260,2.0,7.0,69,0.00,,,0.00,VWS V13.01,2013-01-02 03:27:00,
2013-01-01 22:32:00,41.6,32.2,23.24,SW,229,4.0,10.0,69,0.00,,,0.00,VWS V13.01,2013-01-02 03:32:00,
2013-01-01 22:37:00,41.5,32.1,23.24,WSW,240,5.0,8.0,69,0.00,,,0.00,VWS V13.01,2013-01-02 03:37:00,
2013-01-01 22:42:00,41.4,32.4,23.24,WSW,253,3.0,9.0,70,0.00,,,0.00,VWS V13.01,2013-01-02 03:42:00,
2013-01-01 22:47:00,41.4,32.4,23.24,WSW,237,6.0,7.0,70,0.00,,,0.00,VWS V13.01,2013-01-02 03:47:00,
2013-01-01 22:52:00,41.4,32.4,23.24,West,270,1.0,7.0,70,0.00,,,0.00,VWS V13.01,2013-01-02 03:52:00,
2013-01-01 22:57:00,41.5,32.5,23.24,WSW,254,3.0,6.0,70,0.00,,,0.00,VWS V13.01,2013-01-02 03:57:00,
2013-01-01 23:02:00,41.5,32.5,23.24,WSW,250,6.0,10.0,70,0.00,,,0.00,VWS V13.01,2013-01-02 04:02:00,
2013-01-01 23:07:00,41.3,32.3,23.24,West,262,9.0,9.0,70,0.00,,,0.00,VWS V13.01,2013-01-02 04:07:00,
2013-01-01 23:12:00,41.3,32.3,23.24,WSW,254,6.0,7.0,70,0.00,,,0.00,VWS V13.01,2013-01-02 04:12:00,
2013-01-01 23:17:00,41.2,32.2,23.24,WSW,253,3.0,9.0,70,0.00,,,0.00,VWS V13.01,2013-01-02 04:17:00,
2013-01-01 23:22:00,41.3,32.3,23.24,West,281,3.0,6.0,70,0.00,,,0.00,VWS V13.01,2013-01-02 04:22:00,
2013-01-01 23:27:00,41.1,31.7,23.24,West,266,5.0,10.0,69,0.00,,,0.00,VWS V13.01,2013-01-02 04:27:00,
2013-01-01 23:32:00,41.1,32.1,23.24,WSW,257,0.0,9.0,70,0.00,,,0.00,VWS V13.01,2013-01-02 04:32:00,
2013-01-01 23:37:00,41.1,32.1,23.24,West,264,3.0,7.0,70,0.00,,,0.00,VWS V13.01,2013-01-02 04:37:00,
2013-01-01 23:42:00,41.0,32.0,23.24,West,269,2.0,7.0,70,0.00,,,0.00,VWS V13.01,2013-01-02 04:42:00,
2013-01-01 23:47:00,41.0,31.6,23.24,WSW,238,4.0,7.0,69,0.00,,,0.00,VWS V13.01,2013-01-02 04:47:00,
2013-01-01 23:52:00,40.9,31.5,23.24,West,275,7.0,11.0,69,0.00,,,0.00,VWS V13.01,2013-01-02 04:52:00,
2013-01-01 23:57:00,40.8,31.8,23.24,West,260,2.0,6.0,70,0.00,,,0.00,VWS V13.01,2013-01-02 04:57:00,